2019-073B (44710 NORAD) Tracking and Keplerian Element Data

This shows tracking and keplerian element data for the satellite.

Feedback or suggestion? Click here.




ElementValue
Catalog44710
Name2019-073B
Epoch Orbit19
Epoch Day316.47763537
Epoch Year2019
RAAN303.6499
Inclination28.4909
Eccentricity0.7235995
Argument of Perigee183.8246
Mean Anonmoly163.7341
Mean Motion2.39186222
Decay Rate0.00031094
L11 44710U 19073B 19316.47763537 .00031094 -39030-6 30971-3 0 9990
L22 44710 28.4909 303.6499 7235995 183.8246 163.7341 2.39186222 196

Live tracking and technical data element details for 2019-073B (NORAD 44710). 2019-073B can be tracked NOW for your location showing map with azimuth and elevation plus other details from your city location.

Track the satellite on the map from your city or location and see movement details for azimuth, elevation, latitude, longitude, range, height, and movement on the map or in text.







IsCatalogInMostPopularTable: catalog: 44710, numindb: 3
Update: records affected: 1



GetName: 44710 2019-073B

Hit Count: updated at: Thu, 14 Nov 2019 06:27:52 GMT